Regional Weather Roundup
Issued by NWS Northern Indiana

Home | Current Version | Previous Version | Graphics & Text | Print | Product List | Glossary On
Versions: 1 2 3 4 5 6 7 8 9 10 11 12 13 14 15 16 17 18 19 20 21 22 23 24 25 26 27 28 29 30 31 32 33 34 35 36 37 38 39 40 41 42 43 44 45 46 47 48 49 50
000
ASUS43 KIWX 301610
RWRIWX

KIWX WEATHER ROUNDUP
NATIONAL WEATHER SERVICE NORTHERN INDIANA
1200 PM EDT SUN AUG 30 2015

NOTE: "FAIR" INDICATES FEW OR NO CLOUDS BELOW 12,000 FEET WITH NO
SIGNIFICANT WEATHER AND/OR OBSTRUCTIONS TO VISIBILITY.

* THESE STATIONS ARE NOT UNDER NWS QUALITY CONTROL. THEY ALSO MAY NOT
  REPORT WEATHER SUCH AS PRECIPITATION OR FOG.

INZ001>027-301700-
NORTHERN INDIANA

CITY           SKY/WX    TMP DP  RH WIND       PRES   REMARKS
GARY*          PTSUNNY   72  63  73 CALM      30.09S
VALPARAISO     CLOUDY    74  66  76 NE5       30.09S
MICHIGAN CITY* CLOUDY    72  63  73 N3        30.09S
LAPORTE*       CLOUDY    73  71  92 CALM      30.10S
KNOX*          CLOUDY    68  68 100 CALM      30.08S VSB 1
SOUTH BEND     CLOUDY    71  66  84 NW6       30.09S
ELKHART*       CLOUDY    72  68  88 NW5       30.09  FOG
GOSHEN         CLOUDY    74  68  81 W5        30.08S HAZE
MONTICELLO*    PTSUNNY   75  71  88 CALM      30.07S
LOGANSPORT*    SUNNY     77  63  61 SW6       30.09S
ROCHESTER*     MOSUNNY   79  70  73 SW5       30.09S
WARSAW*        CLOUDY    73  68  83 SW3       30.09S
ANGOLA*        CLOUDY    79  72  78 SW6       30.08S
FORT WAYNE     MOSUNNY   79  68  69 VRB7      30.09S
HUNTINGTON*    SUNNY     79  63  58 W3        30.09S
PERU/GRISSOM   SUNNY     80  66  62 SW10      30.08S
MARION*        SUNNY     78  57  48 SW9       30.10S

$$
INZ028>050-301700-
CENTRAL INDIANA

CITY           SKY/WX    TMP DP  RH WIND       PRES   REMARKS
LAFAYETTE      MOSUNNY   78  66  66 VRB6      30.07S
KOKOMO*        SUNNY     81  64  57 SW9       30.09S
MUNCIE*        SUNNY     79  67  66 VRB6      30.10S
INDIANAPOLIS   MOSUNNY   81  65  58 SW12      30.09S

$$
MIZ043>046-050>051-056>058-064>065-071>073-077>080-301700-
SOUTHWEST LOWER MICHIGAN

CITY           SKY/WX    TMP DP  RH WIND       PRES   REMARKS
BATTLE CREEK   CLOUDY    72  67  84 CALM      30.09S
BENTON HARBOR  MOSUNNY   74  65  73 W8        30.07S
COLDWATER*     CLOUDY    74  69  83 W5        30.09R
HILLSDALE*     PTSUNNY   75  71  86 SW5       30.09S
HOLLAND        PTSUNNY   74  67  78 W5        30.07S
GRAND RAPIDS   CLOUDY    73  69  87 CALM      30.07S FOG
KALAMAZOO      CLOUDY    71  67  87 W3        30.09R FOG
STURGIS*       CLOUDY    72  68  88 CALM      30.09R FOG
THREE RIVERS*  CLOUDY    71  68  92 CALM      30.09S FOG

$$
OHZ001>008-015>018-024>025-301700-
NORTHWEST OHIO

CITY           SKY/WX    TMP DP  RH WIND       PRES   REMARKS
WAUSEON*       PTSUNNY   79  72  78 VRB5      30.08F
DEFIANCE       MOSUNNY   78  69  73 SW6       30.08S
FINDLAY        SUNNY     81  69  67 SW8       30.09S
TOLEDO EXPRESS PTSUNNY   78  70  76 SW9       30.08S
TOLEDO METCALF MOSUNNY   78  69  73 SW9       30.09S
LIMA           MOSUNNY   78  68  71 SW8       30.10S

$$
AND FOR LAKE MICHIGAN COASTAL AND OPEN LAKE BUOY OBSERVATIONS

STATION/POSITION TEMP    WIND        PRES    VSBY  WAVE
                 AIR SEA DIR/SP/G                  HT/PER
                 (F)     (DEG/KT/KT) (MB)    (MI)  (FT/S)
MICHIGAN CITY     71     270/  5/  5   N/A
BURNS HARBOR      69     330/  3/  4 1019.0S
SAINT JOSEPH      72     200/  7/  8 1019.3S
SOUTH LAKE BUOY   67 68  360/  8/ 10 1018.1S         1
4 MI NW BRIDGMAN  69 71  280/  6/  6   N/A           1/ 3
MICHIGAN CITY     70 71  310/  4/  4   N/A           1/ 3

$$
&&



USA.gov is the U.S. government's official web portal to all federal, state and local government web resources and services.